TimeMDT,TemperatureF,Dew PointF,Humidity,Sea Level PressureIn,VisibilityMPH,Wind Direction,Wind SpeedMPH,Gust SpeedMPH,PrecipitationIn,Events,Conditions,WindDirDegrees,DateUTC
12:53 AM,57.9,53.1,84,30.11,10.0,South,4.6,-,N/A,,Clear,190,2013-07-02 06:53:00
1:53 AM,57.0,52.0,83,30.10,10.0,Calm,Calm,-,N/A,,Clear,0,2013-07-02 07:53:00
2:53 AM,57.0,51.1,81,30.09,10.0,Calm,Calm,-,N/A,,Clear,0,2013-07-02 08:53:00
3:53 AM,57.0,51.1,81,30.09,10.0,Calm,Calm,-,N/A,,Clear,0,2013-07-02 09:53:00
4:53 AM,55.0,50.0,83,30.10,10.0,Calm,Calm,-,N/A,,Clear,0,2013-07-02 10:53:00
5:53 AM,55.9,50.0,80,30.11,10.0,Calm,Calm,-,N/A,,Clear,0,2013-07-02 11:53:00
6:53 AM,63.0,54.0,72,30.10,10.0,Calm,Calm,-,N/A,,Clear,0,2013-07-02 12:53:00
8:53 AM,73.0,54.0,51,30.10,10.0,Calm,Calm,-,N/A,,Clear,0,2013-07-02 14:53:00
9:53 AM,79.0,52.0,39,30.09,10.0,NNE,3.5,-,N/A,,Clear,20,2013-07-02 15:53:00
10:53 AM,82.0,53.1,37,30.09,10.0,Variable,3.5,-,N/A,,Clear,0,2013-07-02 16:53:00
11:53 AM,86.0,48.9,28,30.07,10.0,Variable,5.8,-,N/A,,Clear,0,2013-07-02 17:53:00
12:53 PM,86.0,45.0,24,30.06,10.0,ENE,6.9,-,N/A,,Clear,60,2013-07-02 18:53:00
1:53 PM,89.1,43.0,20,30.05,10.0,NE,5.8,-,N/A,,Clear,40,2013-07-02 19:53:00
2:53 PM,88.0,42.1,20,30.04,10.0,NE,6.9,-,N/A,,Clear,40,2013-07-02 20:53:00
3:53 PM,89.1,42.1,19,30.02,10.0,East,3.5,-,N/A,,Clear,80,2013-07-02 21:53:00
4:53 PM,88.0,43.0,21,30.00,10.0,Calm,Calm,-,N/A,,Clear,0,2013-07-02 22:53:00
5:53 PM,87.1,44.1,22,29.99,10.0,South,4.6,-,N/A,,Clear,180,2013-07-02 23:53:00
6:53 PM,86.0,46.0,25,29.96,10.0,SE,5.8,-,N/A,,Clear,140,2013-07-03 00:53:00
7:53 PM,82.0,50.0,33,29.95,10.0,SSE,3.5,-,N/A,,Clear,150,2013-07-03 01:53:00
8:53 PM,69.1,55.9,63,29.96,10.0,SSW,4.6,-,N/A,,Clear,210,2013-07-03 02:53:00
9:53 PM,64.0,52.0,65,29.96,10.0,South,5.8,-,N/A,,Clear,190,2013-07-03 03:53:00
10:53 PM,63.0,51.1,65,29.95,10.0,Calm,Calm,-,N/A,,Clear,0,2013-07-03 04:53:00
11:53 PM,57.9,50.0,75,29.94,10.0,Calm,Calm,-,N/A,,Clear,0,2013-07-03 05:53:00